Time,TemperatureF,DewpointF,PressureIn,WindDirection,WindDirectionDegrees,WindSpeedMPH,WindSpeedGustMPH,Humidity,HourlyPrecipIn,Conditions,Clouds,dailyrainin,SoftwareType,DateUTC
2013-04-30 00:00:00,55.8,55.4,30.00,South,180,0.0,0.0,98,0.00,,,0.00,WUHU216WMR968SP,2013-04-30 04:00:00,
2013-04-30 00:01:00,55.8,55.4,30.00,South,180,0.0,0.0,98,0.00,,,0.00,WUHU216WMR968SP,2013-04-30 04:01:00,
2013-04-30 00:06:00,55.6,55.4,30.00,South,180,0.0,0.0,98,0.00,,,0.00,WUHU216WMR968SP,2013-04-30 04:06:00,
2013-04-30 00:11:00,55.8,55.4,30.00,SW,227,0.0,0.0,98,0.00,,,0.00,WUHU216WMR968SP,2013-04-30 04:11:00,
2013-04-30 00:16:00,55.8,55.4,30.00,SW,227,0.0,0.0,98,0.00,,,0.00,WUHU216WMR968SP,2013-04-30 04:16:00,
2013-04-30 00:21:00,55.8,55.4,30.00,SW,215,0.0,0.0,98,0.00,,,0.00,WUHU216WMR968SP,2013-04-30 04:21:00,
2013-04-30 00:26:00,55.9,55.4,30.00,SSW,193,0.0,0.0,98,0.00,,,0.00,WUHU216WMR968SP,2013-04-30 04:26:00,
2013-04-30 00:31:00,55.8,55.4,30.00,SSW,193,0.0,0.0,98,0.00,,,0.00,WUHU216WMR968SP,2013-04-30 04:31:00,
2013-04-30 00:36:00,55.8,55.4,30.00,SSW,193,0.0,0.0,98,0.00,,,0.00,WUHU216WMR968SP,2013-04-30 04:36:00,
2013-04-30 00:41:00,55.6,55.4,30.00,SSW,193,0.0,0.0,98,0.00,,,0.00,WUHU216WMR968SP,2013-04-30 04:41:00,
2013-04-30 00:46:00,55.6,55.4,30.00,SSW,193,0.0,0.0,98,0.00,,,0.00,WUHU216WMR968SP,2013-04-30 04:46:00,
2013-04-30 00:51:00,55.4,55.4,30.00,SSW,193,0.0,0.0,98,0.00,,,0.00,WUHU216WMR968SP,2013-04-30 04:51:00,
2013-04-30 00:56:00,55.2,55.4,30.00,SSW,193,0.0,0.0,98,0.00,,,0.00,WUHU216WMR968SP,2013-04-30 04:56:00,
2013-04-30 01:01:00,55.2,55.4,30.00,SSW,193,0.0,0.0,98,0.00,,,0.00,WUHU216WMR968SP,2013-04-30 05:01:00,
2013-04-30 01:06:00,55.2,55.4,30.00,SSW,193,0.0,0.0,98,0.00,,,0.00,WUHU216WMR968SP,2013-04-30 05:06:00,
2013-04-30 01:11:00,55.2,55.4,30.00,SSW,193,0.0,0.0,98,0.00,,,0.00,WUHU216WMR968SP,2013-04-30 05:11:00,
2013-04-30 01:16:00,55.0,55.4,30.00,SSW,193,0.0,0.0,98,0.00,,,0.00,WUHU216WMR968SP,2013-04-30 05:16:00,
2013-04-30 01:21:00,54.7,55.4,30.00,SSW,193,0.0,0.0,98,0.00,,,0.00,WUHU216WMR968SP,2013-04-30 05:21:00,
2013-04-30 01:26:00,54.5,55.4,30.00,SSW,193,0.0,0.0,98,0.00,,,0.00,WUHU216WMR968SP,2013-04-30 05:26:00,
2013-04-30 01:31:00,54.5,55.4,30.00,SSW,193,0.0,0.0,98,0.00,,,0.00,WUHU216WMR968SP,2013-04-30 05:31:00,
2013-04-30 01:36:00,54.3,53.6,30.00,SSW,193,0.0,0.0,98,0.00,,,0.00,WUHU216WMR968SP,2013-04-30 05:36:00,
2013-04-30 01:41:00,54.0,53.6,30.00,SSW,193,0.0,0.0,98,0.00,,,0.00,WUHU216WMR968SP,2013-04-30 05:41:00,
2013-04-30 01:46:00,54.0,53.6,30.00,SSW,193,0.0,0.0,98,0.00,,,0.00,WUHU216WMR968SP,2013-04-30 05:46:00,
2013-04-30 01:51:00,53.8,53.6,30.00,SSW,193,0.0,0.0,98,0.00,,,0.00,WUHU216WMR968SP,2013-04-30 05:51:00,
2013-04-30 01:56:00,53.8,53.6,30.00,SSW,193,0.0,0.0,98,0.00,,,0.00,WUHU216WMR968SP,2013-04-30 05:56:00,
2013-04-30 02:01:00,53.6,53.6,30.00,SSW,193,0.0,0.0,98,0.00,,,0.00,WUHU216WMR968SP,2013-04-30 06:01:00,
2013-04-30 02:06:00,53.8,53.6,30.00,SSW,193,0.0,0.0,98,0.00,,,0.00,WUHU216WMR968SP,2013-04-30 06:06:00,
2013-04-30 02:11:00,53.8,53.6,30.00,South,189,0.0,0.0,98,0.00,,,0.00,WUHU216WMR968SP,2013-04-30 06:11:00,
2013-04-30 02:16:00,53.6,53.6,30.00,SSW,194,0.0,0.0,98,0.00,,,0.00,WUHU216WMR968SP,2013-04-30 06:16:00,
2013-04-30 02:21:00,53.6,53.6,30.00,SSW,194,0.0,0.0,98,0.00,,,0.00,WUHU216WMR968SP,2013-04-30 06:21:00,
2013-04-30 02:26:00,53.4,53.6,30.00,SSW,194,0.0,0.0,98,0.00,,,0.00,WUHU216WMR968SP,2013-04-30 06:26:00,
2013-04-30 02:31:00,53.2,53.6,30.00,SSW,194,0.0,0.0,98,0.00,,,0.00,WUHU216WMR968SP,2013-04-30 06:31:00,
2013-04-30 02:36:00,53.1,53.6,30.00,SSW,194,0.0,0.0,98,0.00,,,0.00,WUHU216WMR968SP,2013-04-30 06:36:00,
2013-04-30 02:41:00,53.1,53.6,30.00,SSW,194,0.0,0.0,98,0.00,,,0.00,WUHU216WMR968SP,2013-04-30 06:41:00,
2013-04-30 02:46:00,53.1,53.6,30.00,SSW,194,0.0,0.0,98,0.00,,,0.00,WUHU216WMR968SP,2013-04-30 06:46:00,
2013-04-30 02:51:00,52.9,53.6,30.00,SSW,194,0.0,0.0,98,0.00,,,0.00,WUHU216WMR968SP,2013-04-30 06:51:00,
2013-04-30 02:56:00,52.9,53.6,30.00,SSW,194,0.0,0.0,98,0.00,,,0.00,WUHU216WMR968SP,2013-04-30 06:56:00,
2013-04-30 03:01:00,52.9,53.6,30.00,SSW,194,0.0,0.0,98,0.00,,,0.00,WUHU216WMR968SP,2013-04-30 07:01:00,
2013-04-30 03:06:00,52.9,53.6,29.97,SSW,194,0.0,0.0,98,0.00,,,0.00,WUHU216WMR968SP,2013-04-30 07:06:00,
2013-04-30 03:11:00,52.7,53.6,29.97,SSW,194,0.0,0.0,98,0.00,,,0.00,WUHU216WMR968SP,2013-04-30 07:11:00,
2013-04-30 03:16:00,52.5,51.8,29.97,SSW,194,0.0,0.0,98,0.00,,,0.00,WUHU216WMR968SP,2013-04-30 07:16:00,
2013-04-30 03:21:00,52.5,51.8,29.97,SSW,194,0.0,0.0,98,0.00,,,0.00,WUHU216WMR968SP,2013-04-30 07:21:00,
2013-04-30 03:26:00,52.5,51.8,29.97,SSW,194,0.0,0.0,98,0.00,,,0.00,WUHU216WMR968SP,2013-04-30 07:26:00,
2013-04-30 03:31:00,52.7,53.6,29.97,SSW,194,0.0,0.0,98,0.00,,,0.00,WUHU216WMR968SP,2013-04-30 07:31:00,
2013-04-30 03:36:00,52.7,53.6,30.00,SSW,194,0.0,0.0,98,0.00,,,0.00,WUHU216WMR968SP,2013-04-30 07:36:00,
2013-04-30 03:41:00,52.7,53.6,30.00,SSW,194,0.0,0.0,98,0.00,,,0.00,WUHU216WMR968SP,2013-04-30 07:41:00,
2013-04-30 03:46:00,52.7,53.6,30.00,SSW,194,0.0,0.0,98,0.00,,,0.00,WUHU216WMR968SP,2013-04-30 07:46:00,
2013-04-30 03:51:00,52.9,53.6,30.00,SSW,194,0.0,0.0,98,0.00,,,0.00,WUHU216WMR968SP,2013-04-30 07:51:00,
2013-04-30 03:56:00,52.9,53.6,30.00,SSW,194,0.0,0.0,98,0.00,,,0.00,WUHU216WMR968SP,2013-04-30 07:56:00,
2013-04-30 04:01:00,52.7,53.6,30.00,SSW,194,0.0,0.0,98,0.00,,,0.00,WUHU216WMR968SP,2013-04-30 08:01:00,
2013-04-30 04:06:00,52.7,53.6,30.00,SSW,194,0.0,0.0,98,0.00,,,0.00,WUHU216WMR968SP,2013-04-30 08:06:00,
2013-04-30 04:11:00,52.7,53.6,30.00,SSW,194,0.0,0.0,98,0.00,,,0.00,WUHU216WMR968SP,2013-04-30 08:11:00,
2013-04-30 04:16:00,52.7,53.6,30.00,SSW,194,0.0,0.0,98,0.00,,,0.00,WUHU216WMR968SP,2013-04-30 08:16:00,
2013-04-30 04:21:00,52.3,51.8,30.00,SSW,194,0.0,0.0,98,0.00,,,0.00,WUHU216WMR968SP,2013-04-30 08:21:00,
2013-04-30 04:26:00,52.2,51.8,30.00,SSW,194,0.0,0.0,98,0.00,,,0.00,WUHU216WMR968SP,2013-04-30 08:26:00,
2013-04-30 04:31:00,52.2,51.8,30.00,SSW,194,0.0,0.0,98,0.00,,,0.00,WUHU216WMR968SP,2013-04-30 08:31:00,
2013-04-30 04:36:00,52.2,51.8,30.00,SSW,194,0.0,0.0,98,0.00,,,0.00,WUHU216WMR968SP,2013-04-30 08:36:00,
2013-04-30 04:41:00,52.2,51.8,30.00,SSW,194,0.0,0.0,98,0.00,,,0.00,WUHU216WMR968SP,2013-04-30 08:41:00,
2013-04-30 04:46:00,52.2,51.8,30.00,SSW,194,0.0,0.0,98,0.00,,,0.00,WUHU216WMR968SP,2013-04-30 08:46:00,
2013-04-30 04:51:00,52.2,51.8,30.00,SSW,194,0.0,0.0,98,0.00,,,0.00,WUHU216WMR968SP,2013-04-30 08:51:00,
2013-04-30 04:56:00,52.2,51.8,30.00,SSW,194,0.0,0.0,98,0.00,,,0.00,WUHU216WMR968SP,2013-04-30 08:56:00,
2013-04-30 05:01:00,52.0,51.8,30.00,SSW,194,0.0,0.0,98,0.00,,,0.00,WUHU216WMR968SP,2013-04-30 09:01:00,
2013-04-30 05:06:00,51.6,51.8,30.00,SSW,194,0.0,0.0,98,0.00,,,0.00,WUHU216WMR968SP,2013-04-30 09:06:00,
2013-04-30 05:11:00,51.4,51.8,30.00,SSW,194,0.0,0.0,98,0.00,,,0.00,WUHU216WMR968SP,2013-04-30 09:11:00,
2013-04-30 05:16:00,51.4,51.8,30.00,SSW,194,0.0,0.0,98,0.00,,,0.00,WUHU216WMR968SP,2013-04-30 09:16:00,
2013-04-30 05:21:00,51.3,51.8,30.00,SSW,194,0.0,0.0,98,0.00,,,0.00,WUHU216WMR968SP,2013-04-30 09:21:00,
2013-04-30 05:26:00,51.3,51.8,30.00,SSW,194,0.0,0.0,98,0.00,,,0.00,WUHU216WMR968SP,2013-04-30 09:26:00,
2013-04-30 05:31:00,51.1,51.8,30.00,SSW,194,0.0,0.0,98,0.00,,,0.00,WUHU216WMR968SP,2013-04-30 09:31:00,
2013-04-30 05:36:00,51.1,51.8,30.00,SSW,194,0.0,0.0,98,0.00,,,0.00,WUHU216WMR968SP,2013-04-30 09:36:00,
2013-04-30 05:41:00,51.1,51.8,30.00,SSW,194,0.0,0.0,98,0.00,,,0.00,WUHU216WMR968SP,2013-04-30 09:41:00,
2013-04-30 05:46:00,51.3,51.8,30.00,SSW,194,0.0,0.0,98,0.00,,,0.00,WUHU216WMR968SP,2013-04-30 09:46:00,
2013-04-30 05:51:00,51.3,51.8,30.03,SSW,194,0.0,0.0,98,0.00,,,0.00,WUHU216WMR968SP,2013-04-30 09:51:00,
2013-04-30 05:56:00,51.3,51.8,30.03,SSW,194,0.0,0.0,98,0.00,,,0.00,WUHU216WMR968SP,2013-04-30 09:56:00,
2013-04-30 06:01:00,51.1,51.8,30.03,SSW,194,0.0,0.0,98,0.00,,,0.00,WUHU216WMR968SP,2013-04-30 10:01:00,
2013-04-30 06:06:00,50.9,51.8,30.03,SSW,194,0.0,0.0,98,0.00,,,0.00,WUHU216WMR968SP,2013-04-30 10:06:00,
2013-04-30 06:11:00,50.7,50.0,30.03,SSW,194,0.0,0.0,98,0.00,,,0.00,WUHU216WMR968SP,2013-04-30 10:11:00,
2013-04-30 06:16:00,50.5,50.0,30.03,SSW,194,0.0,0.0,98,0.00,,,0.00,WUHU216WMR968SP,2013-04-30 10:16:00,
2013-04-30 06:21:00,50.5,50.0,30.03,SSW,194,0.0,0.0,98,0.00,,,0.00,WUHU216WMR968SP,2013-04-30 10:21:00,
2013-04-30 06:26:00,50.4,50.0,30.03,SSW,194,0.0,0.0,98,0.00,,,0.00,WUHU216WMR968SP,2013-04-30 10:26:00,
2013-04-30 06:31:00,50.4,50.0,30.03,SSW,194,0.0,0.0,98,0.00,,,0.00,WUHU216WMR968SP,2013-04-30 10:31:00,
2013-04-30 06:36:00,50.2,50.0,30.03,SSW,194,0.0,0.0,98,0.00,,,0.00,WUHU216WMR968SP,2013-04-30 10:36:00,
2013-04-30 06:41:00,50.2,50.0,30.03,SSW,194,0.0,0.0,98,0.00,,,0.00,WUHU216WMR968SP,2013-04-30 10:41:00,
2013-04-30 06:46:00,50.0,50.0,30.03,SSW,194,0.0,0.0,98,0.00,,,0.00,WUHU216WMR968SP,2013-04-30 10:46:00,
2013-04-30 06:51:00,50.0,50.0,30.03,SSW,194,0.0,0.0,98,0.00,,,0.00,WUHU216WMR968SP,2013-04-30 10:51:00,
2013-04-30 06:56:00,50.0,50.0,30.03,SSW,194,0.0,0.0,98,0.00,,,0.00,WUHU216WMR968SP,2013-04-30 10:56:00,
2013-04-30 07:02:00,50.2,50.0,30.03,SSW,194,0.0,0.0,98,0.00,,,0.00,WUHU216WMR968SP,2013-04-30 11:02:00,
2013-04-30 07:06:00,50.2,50.0,30.06,SSW,194,0.0,0.0,98,0.00,,,0.00,WUHU216WMR968SP,2013-04-30 11:06:00,
2013-04-30 07:11:00,50.5,50.0,30.06,SSW,194,0.0,0.0,98,0.00,,,0.00,WUHU216WMR968SP,2013-04-30 11:11:00,
2013-04-30 07:16:00,50.7,50.0,30.06,SSW,194,0.0,0.0,98,0.00,,,0.00,WUHU216WMR968SP,2013-04-30 11:16:00,
2013-04-30 07:21:00,50.9,51.8,30.06,SSW,194,0.0,0.0,98,0.00,,,0.00,WUHU216WMR968SP,2013-04-30 11:21:00,
2013-04-30 07:27:00,51.3,51.8,30.06,SSW,194,0.0,0.0,98,0.00,,,0.00,WUHU216WMR968SP,2013-04-30 11:27:00,
2013-04-30 07:32:00,51.6,51.8,30.06,SSW,194,0.0,0.0,98,0.00,,,0.00,WUHU216WMR968SP,2013-04-30 11:32:00,
2013-04-30 07:37:00,52.0,51.8,30.06,SSW,194,0.0,0.0,98,0.00,,,0.00,WUHU216WMR968SP,2013-04-30 11:37:00,
2013-04-30 07:42:00,52.5,51.8,30.06,SSW,194,0.0,0.0,98,0.00,,,0.00,WUHU216WMR968SP,2013-04-30 11:42:00,
2013-04-30 07:47:00,52.9,53.6,30.06,SSW,194,0.0,0.0,98,0.00,,,0.00,WUHU216WMR968SP,2013-04-30 11:47:00,
2013-04-30 07:52:00,53.1,53.6,30.06,SSW,194,0.0,0.0,98,0.00,,,0.00,WUHU216WMR968SP,2013-04-30 11:52:00,
2013-04-30 07:57:00,53.2,53.6,30.06,SSW,194,0.0,0.0,98,0.00,,,0.00,WUHU216WMR968SP,2013-04-30 11:57:00,
2013-04-30 08:02:00,53.2,53.6,30.06,SSW,194,0.0,0.0,98,0.00,,,0.00,WUHU216WMR968SP,2013-04-30 12:02:00,
2013-04-30 08:07:00,53.4,53.6,30.06,SSW,194,0.0,0.0,98,0.00,,,0.00,WUHU216WMR968SP,2013-04-30 12:07:00,
2013-04-30 08:12:00,53.4,53.6,30.06,SSW,194,0.0,0.0,98,0.00,,,0.00,WUHU216WMR968SP,2013-04-30 12:12:00,
2013-04-30 08:17:00,53.8,53.6,30.06,SSW,194,0.0,0.0,98,0.00,,,0.00,WUHU216WMR968SP,2013-04-30 12:17:00,
2013-04-30 08:22:00,54.1,53.6,30.09,SSW,195,0.0,0.0,98,0.00,,,0.00,WUHU216WMR968SP,2013-04-30 12:22:00,
2013-04-30 08:27:00,54.5,55.4,30.09,SSW,195,0.0,0.0,98,0.00,,,0.00,WUHU216WMR968SP,2013-04-30 12:27:00,
2013-04-30 08:32:00,54.7,55.4,30.09,South,186,0.0,0.0,98,0.00,,,0.00,WUHU216WMR968SP,2013-04-30 12:32:00,
2013-04-30 08:37:00,55.0,55.4,30.09,SSW,198,0.0,0.0,98,0.00,,,0.00,WUHU216WMR968SP,2013-04-30 12:37:00,
2013-04-30 08:42:00,55.4,55.4,30.09,SSW,198,0.0,0.0,98,0.00,,,0.00,WUHU216WMR968SP,2013-04-30 12:42:00,
2013-04-30 08:47:00,55.9,55.4,30.09,SSW,198,0.0,0.0,98,0.00,,,0.00,WUHU216WMR968SP,2013-04-30 12:47:00,
2013-04-30 08:52:00,56.8,57.2,30.09,SSW,198,0.0,0.0,98,0.00,,,0.00,WUHU216WMR968SP,2013-04-30 12:52:00,
2013-04-30 08:57:00,57.0,57.2,30.09,SSW,198,0.0,0.0,98,0.00,,,0.00,WUHU216WMR968SP,2013-04-30 12:57:00,
2013-04-30 09:02:00,57.4,57.2,30.09,SSW,198,0.0,0.0,98,0.00,,,0.00,WUHU216WMR968SP,2013-04-30 13:02:00,
2013-04-30 09:07:00,57.9,57.2,30.09,SSW,195,0.0,0.0,98,0.00,,,0.00,WUHU216WMR968SP,2013-04-30 13:07:00,
2013-04-30 09:12:00,58.1,59.0,30.09,SSW,195,0.0,0.0,98,0.00,,,0.00,WUHU216WMR968SP,2013-04-30 13:12:00,
2013-04-30 09:17:00,58.8,59.0,30.09,SSW,198,0.0,0.0,98,0.00,,,0.00,WUHU216WMR968SP,2013-04-30 13:17:00,
2013-04-30 09:22:00,59.5,59.0,30.09,SSW,198,0.0,0.0,98,0.00,,,0.00,WUHU216WMR968SP,2013-04-30 13:22:00,
2013-04-30 09:27:00,60.4,60.8,30.09,SSW,198,0.0,0.0,98,0.00,,,0.00,WUHU216WMR968SP,2013-04-30 13:27:00,
2013-04-30 09:32:00,61.5,60.8,30.09,SSW,198,0.0,0.0,98,0.00,,,0.00,WUHU216WMR968SP,2013-04-30 13:32:00,
2013-04-30 09:37:00,62.6,62.6,30.09,SSW,208,0.0,0.0,98,0.00,,,0.00,WUHU216WMR968SP,2013-04-30 13:37:00,
2013-04-30 09:42:00,63.7,64.4,30.09,WSW,253,0.0,0.0,98,0.00,,,0.00,WUHU216WMR968SP,2013-04-30 13:42:00,
2013-04-30 09:47:00,64.6,64.4,30.09,West,260,0.0,0.0,98,0.00,,,0.00,WUHU216WMR968SP,2013-04-30 13:47:00,
2013-04-30 09:52:00,65.7,66.2,30.09,West,260,0.0,0.0,97,0.00,,,0.00,WUHU216WMR968SP,2013-04-30 13:52:00,
2013-04-30 09:57:00,66.4,64.4,30.09,West,260,0.0,0.0,94,0.00,,,0.00,WUHU216WMR968SP,2013-04-30 13:57:00,
2013-04-30 10:02:00,64.6,62.6,30.09,WSW,238,0.0,0.0,92,0.00,,,0.00,WUHU216WMR968SP,2013-04-30 14:02:00,
2013-04-30 10:07:00,64.9,62.6,30.09,West,277,0.0,0.0,91,0.00,,,0.00,WUHU216WMR968SP,2013-04-30 14:07:00,
2013-04-30 10:12:00,65.3,62.6,30.09,WSW,242,0.0,0.0,89,0.00,,,0.00,WUHU216WMR968SP,2013-04-30 14:12:00,
2013-04-30 10:17:00,64.9,60.8,30.09,WSW,243,0.0,0.0,88,0.00,,,0.00,WUHU216WMR968SP,2013-04-30 14:17:00,
2013-04-30 10:22:00,66.6,62.6,30.09,WSW,258,0.0,0.0,88,0.00,,,0.00,WUHU216WMR968SP,2013-04-30 14:22:00,
2013-04-30 10:27:00,67.6,64.4,30.09,WSW,258,0.0,0.0,86,0.00,,,0.00,WUHU216WMR968SP,2013-04-30 14:27:00,
2013-04-30 10:32:00,67.1,62.6,30.09,WSW,247,0.0,0.0,83,0.00,,,0.00,WUHU216WMR968SP,2013-04-30 14:32:00,
2013-04-30 10:37:00,68.0,62.6,30.09,West,267,0.0,0.0,82,0.00,,,0.00,WUHU216WMR968SP,2013-04-30 14:37:00,
2013-04-30 10:42:00,68.9,64.4,30.09,West,271,0.0,0.0,81,0.00,,,0.00,WUHU216WMR968SP,2013-04-30 14:42:00,
2013-04-30 10:47:00,69.4,62.6,30.09,West,271,0.0,0.0,79,0.00,,,0.00,WUHU216WMR968SP,2013-04-30 14:47:00,
2013-04-30 10:52:00,70.7,64.4,30.09,West,272,0.0,0.0,77,0.00,,,0.00,WUHU216WMR968SP,2013-04-30 14:52:00,
2013-04-30 10:57:00,70.3,60.8,30.09,WSW,252,0.0,0.0,75,0.00,,,0.00,WUHU216WMR968SP,2013-04-30 14:57:00,
2013-04-30 11:02:00,69.6,60.8,30.09,West,269,0.0,0.0,75,0.00,,,0.00,WUHU216WMR968SP,2013-04-30 15:02:00,
2013-04-30 11:07:00,70.5,60.8,30.09,West,273,0.0,0.0,74,0.00,,,0.00,WUHU216WMR968SP,2013-04-30 15:07:00,
2013-04-30 11:12:00,71.4,62.6,30.09,WSW,256,0.0,0.0,72,0.00,,,0.00,WUHU216WMR968SP,2013-04-30 15:12:00,
2013-04-30 11:17:00,72.3,60.8,30.09,West,275,0.0,0.0,71,0.00,,,0.00,WUHU216WMR968SP,2013-04-30 15:17:00,
2013-04-30 11:22:00,73.4,62.6,30.09,West,278,0.0,0.0,69,0.00,,,0.00,WUHU216WMR968SP,2013-04-30 15:22:00,
2013-04-30 11:27:00,74.1,62.6,30.09,West,279,0.0,0.0,67,0.00,,,0.00,WUHU216WMR968SP,2013-04-30 15:27:00,
2013-04-30 11:32:00,73.0,62.6,30.09,WSW,246,0.0,0.0,67,0.00,,,0.00,WUHU216WMR968SP,2013-04-30 15:32:00,
2013-04-30 11:37:00,73.4,62.6,30.09,WSW,250,0.0,0.0,67,0.00,,,0.00,WUHU216WMR968SP,2013-04-30 15:37:00,
2013-04-30 11:42:00,71.8,60.8,30.09,WSW,255,0.0,0.0,68,0.00,,,0.00,WUHU216WMR968SP,2013-04-30 15:42:00,
2013-04-30 11:47:00,72.7,62.6,30.09,West,260,0.0,0.0,69,0.00,,,0.00,WUHU216WMR968SP,2013-04-30 15:47:00,
2013-04-30 11:52:00,74.5,64.4,30.09,West,278,0.0,0.0,67,0.00,,,0.00,WUHU216WMR968SP,2013-04-30 15:52:00,
2013-04-30 11:57:00,75.0,62.6,30.09,West,278,0.0,0.0,66,0.00,,,0.00,WUHU216WMR968SP,2013-04-30 15:57:00,
2013-04-30 12:02:00,75.6,62.6,30.09,West,278,0.0,0.0,63,0.00,,,0.00,WUHU216WMR968SP,2013-04-30 16:02:00,
2013-04-30 12:07:00,76.1,64.4,30.09,West,279,0.0,0.0,63,0.00,,,0.00,WUHU216WMR968SP,2013-04-30 16:07:00,
2013-04-30 12:12:00,75.4,62.6,30.09,West,280,0.0,0.0,63,0.00,,,0.00,WUHU216WMR968SP,2013-04-30 16:12:00,
2013-04-30 12:17:00,75.0,62.6,30.09,West,277,0.0,0.0,64,0.00,,,0.00,WUHU216WMR968SP,2013-04-30 16:17:00,
2013-04-30 12:22:00,74.3,62.6,30.06,WSW,246,0.0,0.0,64,0.00,,,0.00,WUHU216WMR968SP,2013-04-30 16:22:00,
2013-04-30 12:27:00,75.4,62.6,30.06,WSW,245,0.0,0.0,63,0.00,,,0.00,WUHU216WMR968SP,2013-04-30 16:27:00,
2013-04-30 12:32:00,74.5,62.6,30.06,West,269,0.0,0.0,64,0.00,,,0.00,WUHU216WMR968SP,2013-04-30 16:32:00,
2013-04-30 12:37:00,73.4,60.8,30.06,West,269,0.0,0.0,65,0.00,,,0.00,WUHU216WMR968SP,2013-04-30 16:37:00,
2013-04-30 12:42:00,72.3,59.0,30.06,WSW,249,0.0,0.0,66,0.00,,,0.00,WUHU216WMR968SP,2013-04-30 16:42:00,
2013-04-30 12:47:00,73.4,60.8,30.06,West,275,0.0,0.0,65,0.00,,,0.00,WUHU216WMR968SP,2013-04-30 16:47:00,
2013-04-30 12:52:00,75.2,62.6,30.06,West,280,0.0,0.0,64,0.00,,,0.00,WUHU216WMR968SP,2013-04-30 16:52:00,
2013-04-30 12:57:00,75.9,62.6,30.06,West,263,0.0,0.0,64,0.00,,,0.00,WUHU216WMR968SP,2013-04-30 16:57:00,
2013-04-30 13:02:00,76.1,64.4,30.06,WSW,244,0.0,0.0,63,0.00,,,0.00,WUHU216WMR968SP,2013-04-30 17:02:00,
2013-04-30 13:07:00,74.3,60.8,30.06,WSW,242,0.0,0.0,62,0.00,,,0.00,WUHU216WMR968SP,2013-04-30 17:07:00,
2013-04-30 13:12:00,74.5,60.8,30.06,WSW,246,0.0,0.0,62,0.00,,,0.00,WUHU216WMR968SP,2013-04-30 17:12:00,
2013-04-30 13:17:00,75.0,60.8,30.06,West,276,0.0,0.0,62,0.00,,,0.00,WUHU216WMR968SP,2013-04-30 17:17:00,
2013-04-30 13:22:00,74.7,60.8,30.06,WSW,244,0.0,0.0,61,0.00,,,0.00,WUHU216WMR968SP,2013-04-30 17:22:00,
2013-04-30 13:27:00,74.7,60.8,30.06,WSW,252,0.0,0.0,60,0.00,,,0.00,WUHU216WMR968SP,2013-04-30 17:27:00,
2013-04-30 13:32:00,76.3,60.8,30.06,WNW,282,0.0,0.0,58,0.00,,,0.00,WUHU216WMR968SP,2013-04-30 17:32:00,
2013-04-30 13:37:00,76.8,60.8,30.03,West,259,0.0,0.0,56,0.00,,,0.00,WUHU216WMR968SP,2013-04-30 17:37:00,
2013-04-30 13:42:00,78.1,62.6,30.03,West,261,0.0,0.0,56,0.00,,,0.00,WUHU216WMR968SP,2013-04-30 17:42:00,
2013-04-30 13:47:00,78.8,60.8,30.03,West,279,0.0,0.0,54,0.00,,,0.00,WUHU216WMR968SP,2013-04-30 17:47:00,
2013-04-30 13:52:00,78.6,59.0,30.03,West,279,0.0,0.0,51,0.00,,,0.00,WUHU216WMR968SP,2013-04-30 17:52:00,
2013-04-30 13:57:00,78.6,59.0,30.03,West,281,0.0,0.0,52,0.00,,,0.00,WUHU216WMR968SP,2013-04-30 17:57:00,
2013-04-30 14:02:00,77.7,59.0,30.03,West,280,0.0,0.0,53,0.00,,,0.00,WUHU216WMR968SP,2013-04-30 18:02:00,
2013-04-30 14:07:00,76.3,59.0,30.03,West,280,0.0,0.0,55,0.00,,,0.00,WUHU216WMR968SP,2013-04-30 18:07:00,
2013-04-30 14:12:00,76.3,59.0,30.03,WSW,248,0.0,0.0,54,0.00,,,0.00,WUHU216WMR968SP,2013-04-30 18:12:00,
2013-04-30 14:17:00,77.4,59.0,30.03,West,268,0.0,0.0,53,0.00,,,0.00,WUHU216WMR968SP,2013-04-30 18:17:00,
2013-04-30 14:22:00,77.9,59.0,30.03,WSW,246,0.0,0.0,51,0.00,,,0.00,WUHU216WMR968SP,2013-04-30 18:22:00,
2013-04-30 14:27:00,78.8,59.0,30.03,WSW,243,0.0,0.0,51,0.00,,,0.00,WUHU216WMR968SP,2013-04-30 18:27:00,
2013-04-30 14:32:00,78.3,59.0,30.03,West,262,0.0,0.0,50,0.00,,,0.00,WUHU216WMR968SP,2013-04-30 18:32:00,
2013-04-30 14:37:00,79.5,59.0,30.03,West,279,0.0,0.0,50,0.00,,,0.00,WUHU216WMR968SP,2013-04-30 18:37:00,
2013-04-30 14:42:00,79.7,59.0,30.03,WNW,284,0.0,0.0,48,0.00,,,0.00,WUHU216WMR968SP,2013-04-30 18:42:00,
2013-04-30 14:47:00,79.2,57.2,30.03,WNW,282,0.0,0.0,48,0.00,,,0.00,WUHU216WMR968SP,2013-04-30 18:47:00,
2013-04-30 14:52:00,78.1,57.2,30.03,WSW,255,0.0,0.0,48,0.00,,,0.00,WUHU216WMR968SP,2013-04-30 18:52:00,
2013-04-30 14:57:00,78.3,57.2,30.03,West,281,0.0,0.0,49,0.00,,,0.00,WUHU216WMR968SP,2013-04-30 18:57:00,
2013-04-30 15:02:00,79.0,57.2,30.03,WNW,284,0.0,0.0,48,0.00,,,0.00,WUHU216WMR968SP,2013-04-30 19:02:00,
2013-04-30 15:07:00,79.2,57.2,30.03,WNW,286,0.0,0.0,47,0.00,,,0.00,WUHU216WMR968SP,2013-04-30 19:07:00,
2013-04-30 15:12:00,79.5,57.2,30.03,WNW,288,0.0,0.0,46,0.00,,,0.00,WUHU216WMR968SP,2013-04-30 19:12:00,
2013-04-30 15:17:00,79.5,57.2,30.03,West,268,0.0,0.0,48,0.00,,,0.00,WUHU216WMR968SP,2013-04-30 19:17:00,
2013-04-30 15:22:00,79.2,57.2,30.03,West,275,0.0,0.0,48,0.00,,,0.00,WUHU216WMR968SP,2013-04-30 19:22:00,
2013-04-30 15:27:00,79.7,59.0,30.03,West,266,0.0,0.0,47,0.00,,,0.00,WUHU216WMR968SP,2013-04-30 19:27:00,
2013-04-30 15:32:00,78.8,57.2,30.03,SW,236,0.0,0.0,46,0.00,,,0.00,WUHU216WMR968SP,2013-04-30 19:32:00,
2013-04-30 15:37:00,78.4,57.2,30.03,WNW,287,0.0,0.0,46,0.00,,,0.00,WUHU216WMR968SP,2013-04-30 19:37:00,
2013-04-30 15:42:00,79.2,57.2,30.03,WNW,287,0.0,0.0,46,0.00,,,0.00,WUHU216WMR968SP,2013-04-30 19:42:00,
2013-04-30 15:47:00,79.7,57.2,30.03,WNW,287,0.0,0.0,46,0.00,,,0.00,WUHU216WMR968SP,2013-04-30 19:47:00,
2013-04-30 15:52:00,79.7,57.2,30.03,WNW,289,0.0,0.0,45,0.00,,,0.00,WUHU216WMR968SP,2013-04-30 19:52:00,
2013-04-30 15:57:00,79.3,55.4,30.03,WNW,289,0.0,0.0,44,0.00,,,0.00,WUHU216WMR968SP,2013-04-30 19:57:00,
2013-04-30 16:02:00,79.5,57.2,30.03,WNW,288,0.0,0.0,46,0.00,,,0.00,WUHU216WMR968SP,2013-04-30 20:02:00,
2013-04-30 16:07:00,79.2,55.4,30.00,WNW,288,0.0,0.0,44,0.00,,,0.00,WUHU216WMR968SP,2013-04-30 20:07:00,
2013-04-30 16:12:00,79.0,55.4,30.00,WNW,290,0.0,0.0,44,0.00,,,0.00,WUHU216WMR968SP,2013-04-30 20:12:00,
2013-04-30 16:17:00,79.2,55.4,30.00,WNW,289,0.0,0.0,45,0.00,,,0.00,WUHU216WMR968SP,2013-04-30 20:17:00,
2013-04-30 16:22:00,79.0,55.4,30.00,WSW,248,0.0,0.0,45,0.00,,,0.00,WUHU216WMR968SP,2013-04-30 20:22:00,
2013-04-30 16:27:00,79.0,55.4,30.00,WSW,250,0.0,0.0,45,0.00,,,0.00,WUHU216WMR968SP,2013-04-30 20:27:00,
2013-04-30 16:32:00,78.8,55.4,30.00,West,270,0.0,0.0,45,0.00,,,0.00,WUHU216WMR968SP,2013-04-30 20:32:00,
2013-04-30 16:37:00,78.8,57.2,30.03,SW,235,0.0,0.0,46,0.00,,,0.00,WUHU216WMR968SP,2013-04-30 20:37:00,
2013-04-30 16:42:00,78.4,57.2,30.03,WSW,237,0.0,0.0,46,0.00,,,0.00,WUHU216WMR968SP,2013-04-30 20:42:00,
2013-04-30 16:47:00,78.4,57.2,30.03,WSW,239,0.0,0.0,46,0.00,,,0.00,WUHU216WMR968SP,2013-04-30 20:47:00,
2013-04-30 16:52:00,78.3,57.2,30.03,West,267,0.0,0.0,46,0.00,,,0.00,WUHU216WMR968SP,2013-04-30 20:52:00,
2013-04-30 16:57:00,78.3,57.2,30.03,WNW,285,0.0,0.0,47,0.00,,,0.00,WUHU216WMR968SP,2013-04-30 20:57:00,
2013-04-30 17:02:00,78.3,57.2,30.03,WNW,285,0.0,0.0,46,0.00,,,0.00,WUHU216WMR968SP,2013-04-30 21:02:00,
2013-04-30 17:07:00,78.4,57.2,30.03,WNW,285,0.0,0.0,46,0.00,,,0.00,WUHU216WMR968SP,2013-04-30 21:07:00,
2013-04-30 17:12:00,78.6,55.4,30.03,WNW,287,0.0,0.0,45,0.00,,,0.00,WUHU216WMR968SP,2013-04-30 21:12:00,
2013-04-30 17:17:00,78.6,57.2,30.03,WNW,287,0.0,0.0,47,0.00,,,0.00,WUHU216WMR968SP,2013-04-30 21:17:00,
2013-04-30 17:22:00,78.6,57.2,30.03,WNW,287,0.0,0.0,46,0.00,,,0.00,WUHU216WMR968SP,2013-04-30 21:22:00,
2013-04-30 17:27:00,78.3,57.2,30.03,WNW,287,0.0,0.0,46,0.00,,,0.00,WUHU216WMR968SP,2013-04-30 21:27:00,
2013-04-30 17:32:00,77.9,57.2,30.03,WSW,239,0.0,0.0,46,0.00,,,0.00,WUHU216WMR968SP,2013-04-30 21:32:00,
2013-04-30 17:37:00,77.9,57.2,30.03,WSW,240,0.0,0.0,46,0.00,,,0.00,WUHU216WMR968SP,2013-04-30 21:37:00,
2013-04-30 17:42:00,77.9,57.2,30.03,WSW,240,0.0,0.0,46,0.00,,,0.00,WUHU216WMR968SP,2013-04-30 21:42:00,
2013-04-30 17:47:00,77.4,55.4,30.03,WSW,240,0.0,0.0,46,0.00,,,0.00,WUHU216WMR968SP,2013-04-30 21:47:00,
2013-04-30 17:52:00,77.5,55.4,30.03,WSW,247,0.0,0.0,47,0.00,,,0.00,WUHU216WMR968SP,2013-04-30 21:52:00,
2013-04-30 17:57:00,77.4,55.4,30.03,SW,235,0.0,0.0,47,0.00,,,0.00,WUHU216WMR968SP,2013-04-30 21:57:00,
2013-04-30 18:02:00,77.5,55.4,30.03,WNW,287,0.0,0.0,47,0.00,,,0.00,WUHU216WMR968SP,2013-04-30 22:02:00,
2013-04-30 18:07:00,77.5,55.4,30.03,WNW,287,0.0,0.0,47,0.00,,,0.00,WUHU216WMR968SP,2013-04-30 22:07:00,
2013-04-30 18:12:00,77.5,55.4,30.03,WNW,287,0.0,0.0,47,0.00,,,0.00,WUHU216WMR968SP,2013-04-30 22:12:00,
2013-04-30 18:17:00,77.4,55.4,30.03,WNW,287,0.0,0.0,48,0.00,,,0.00,WUHU216WMR968SP,2013-04-30 22:17:00,
2013-04-30 18:22:00,77.4,55.4,30.00,WNW,287,0.0,0.0,48,0.00,,,0.00,WUHU216WMR968SP,2013-04-30 22:22:00,
2013-04-30 18:27:00,77.2,55.4,30.00,WNW,287,0.0,0.0,47,0.00,,,0.00,WUHU216WMR968SP,2013-04-30 22:27:00,
2013-04-30 18:32:00,77.0,57.2,30.00,WNW,287,0.0,0.0,49,0.00,,,0.00,WUHU216WMR968SP,2013-04-30 22:32:00,
2013-04-30 18:37:00,76.8,59.0,30.03,WNW,287,0.0,0.0,52,0.00,,,0.00,WUHU216WMR968SP,2013-04-30 22:37:00,
2013-04-30 18:42:00,76.5,59.0,30.03,WNW,287,0.0,0.0,52,0.00,,,0.00,WUHU216WMR968SP,2013-04-30 22:42:00,
2013-04-30 18:47:00,76.1,59.0,30.03,WNW,287,0.0,0.0,53,0.00,,,0.00,WUHU216WMR968SP,2013-04-30 22:47:00,
2013-04-30 18:52:00,75.7,57.2,30.03,WSW,237,0.0,0.0,54,0.00,,,0.00,WUHU216WMR968SP,2013-04-30 22:52:00,
2013-04-30 18:57:00,75.6,57.2,30.03,WSW,237,0.0,0.0,53,0.00,,,0.00,WUHU216WMR968SP,2013-04-30 22:57:00,
2013-04-30 19:02:00,75.4,57.2,30.03,WSW,237,0.0,0.0,54,0.00,,,0.00,WUHU216WMR968SP,2013-04-30 23:02:00,
2013-04-30 19:07:00,75.0,57.2,30.03,WSW,237,0.0,0.0,55,0.00,,,0.00,WUHU216WMR968SP,2013-04-30 23:07:00,
2013-04-30 19:12:00,74.7,59.0,30.03,WSW,237,0.0,0.0,56,0.00,,,0.00,WUHU216WMR968SP,2013-04-30 23:12:00,
2013-04-30 19:17:00,74.3,59.0,30.03,WSW,237,0.0,0.0,56,0.00,,,0.00,WUHU216WMR968SP,2013-04-30 23:17:00,
2013-04-30 19:22:00,74.1,57.2,30.03,WSW,237,0.0,0.0,57,0.00,,,0.00,WUHU216WMR968SP,2013-04-30 23:22:00,
2013-04-30 19:27:00,73.8,59.0,30.03,WSW,237,0.0,0.0,59,0.00,,,0.00,WUHU216WMR968SP,2013-04-30 23:27:00,
2013-04-30 19:32:00,73.2,59.0,30.03,WSW,237,0.0,0.0,61,0.00,,,0.00,WUHU216WMR968SP,2013-04-30 23:32:00,
2013-04-30 19:37:00,72.7,60.8,30.03,WSW,237,0.0,0.0,63,0.00,,,0.00,WUHU216WMR968SP,2013-04-30 23:37:00,
2013-04-30 19:42:00,72.3,59.0,30.03,WSW,237,0.0,0.0,64,0.00,,,0.00,WUHU216WMR968SP,2013-04-30 23:42:00,
2013-04-30 19:47:00,71.8,59.0,30.03,SW,229,0.0,0.0,65,0.00,,,0.00,WUHU216WMR968SP,2013-04-30 23:47:00,
2013-04-30 19:52:00,71.4,60.8,30.03,SW,229,0.0,0.0,67,0.00,,,0.00,WUHU216WMR968SP,2013-04-30 23:52:00,
2013-04-30 19:57:00,70.7,60.8,30.03,SW,229,0.0,0.0,68,0.00,,,0.00,WUHU216WMR968SP,2013-04-30 23:57:00,
2013-04-30 20:02:00,70.2,59.0,30.03,SW,229,0.0,0.0,69,0.00,,,0.00,WUHU216WMR968SP,2013-05-01 00:02:00,
2013-04-30 20:07:00,69.6,59.0,30.03,SW,229,0.0,0.0,70,0.00,,,0.00,WUHU216WMR968SP,2013-05-01 00:07:00,
2013-04-30 20:12:00,69.1,59.0,30.03,SW,229,0.0,0.0,70,0.00,,,0.00,WUHU216WMR968SP,2013-05-01 00:12:00,
2013-04-30 20:17:00,68.7,59.0,30.03,SW,229,0.0,0.0,71,0.00,,,0.00,WUHU216WMR968SP,2013-05-01 00:17:00,
2013-04-30 20:22:00,68.0,59.0,30.03,SW,229,0.0,0.0,73,0.00,,,0.00,WUHU216WMR968SP,2013-05-01 00:22:00,
2013-04-30 20:27:00,67.3,59.0,30.03,SW,229,0.0,0.0,75,0.00,,,0.00,WUHU216WMR968SP,2013-05-01 00:27:00,
2013-04-30 20:32:00,66.7,57.2,30.03,SW,229,0.0,0.0,75,0.00,,,0.00,WUHU216WMR968SP,2013-05-01 00:32:00,
2013-04-30 20:37:00,66.6,57.2,30.03,SW,229,0.0,0.0,75,0.00,,,0.00,WUHU216WMR968SP,2013-05-01 00:37:00,
2013-04-30 20:42:00,66.4,57.2,30.03,SW,229,0.0,0.0,74,0.00,,,0.00,WUHU216WMR968SP,2013-05-01 00:42:00,
2013-04-30 20:47:00,65.8,59.0,30.03,SW,229,0.0,0.0,76,0.00,,,0.00,WUHU216WMR968SP,2013-05-01 00:47:00,
2013-04-30 20:52:00,65.3,59.0,30.03,SW,229,0.0,0.0,78,0.00,,,0.00,WUHU216WMR968SP,2013-05-01 00:52:00,
2013-04-30 20:57:00,64.8,57.2,30.03,SW,229,0.0,0.0,78,0.00,,,0.00,WUHU216WMR968SP,2013-05-01 00:57:00,
2013-04-30 21:02:00,64.4,57.2,30.03,SW,229,0.0,0.0,79,0.00,,,0.00,WUHU216WMR968SP,2013-05-01 01:02:00,
2013-04-30 21:07:00,64.2,57.2,30.06,SW,229,0.0,0.0,80,0.00,,,0.00,WUHU216WMR968SP,2013-05-01 01:07:00,
2013-04-30 21:12:00,64.0,57.2,30.06,SSW,195,0.0,0.0,80,0.00,,,0.00,WUHU216WMR968SP,2013-05-01 01:12:00,
2013-04-30 21:17:00,63.9,57.2,30.06,SSW,194,0.0,0.0,80,0.00,,,0.00,WUHU216WMR968SP,2013-05-01 01:17:00,
2013-04-30 21:22:00,63.7,59.0,30.06,SSW,199,0.0,0.0,81,0.00,,,0.00,WUHU216WMR968SP,2013-05-01 01:22:00,
2013-04-30 21:27:00,63.5,59.0,30.06,SSW,207,0.0,0.0,81,0.00,,,0.00,WUHU216WMR968SP,2013-05-01 01:27:00,
2013-04-30 21:32:00,63.1,57.2,30.06,SW,219,0.0,0.0,82,0.00,,,0.00,WUHU216WMR968SP,2013-05-01 01:32:00,
2013-04-30 21:37:00,63.0,57.2,30.06,SW,219,0.0,0.0,82,0.00,,,0.00,WUHU216WMR968SP,2013-05-01 01:37:00,
2013-04-30 21:42:00,62.8,57.2,30.06,SW,219,0.0,0.0,83,0.00,,,0.00,WUHU216WMR968SP,2013-05-01 01:42:00,
2013-04-30 21:47:00,62.8,57.2,30.06,SW,223,0.0,0.0,83,0.00,,,0.00,WUHU216WMR968SP,2013-05-01 01:47:00,
2013-04-30 21:52:00,62.6,57.2,30.06,SW,222,0.0,0.0,83,0.00,,,0.00,WUHU216WMR968SP,2013-05-01 01:52:00,
2013-04-30 21:57:00,62.6,57.2,30.06,SW,222,0.0,0.0,84,0.00,,,0.00,WUHU216WMR968SP,2013-05-01 01:57:00,
2013-04-30 22:02:00,62.4,57.2,30.06,SW,222,0.0,0.0,85,0.00,,,0.00,WUHU216WMR968SP,2013-05-01 02:02:00,
2013-04-30 22:07:00,62.4,57.2,30.06,SW,222,0.0,0.0,85,0.00,,,0.00,WUHU216WMR968SP,2013-05-01 02:07:00,
2013-04-30 22:12:00,62.4,59.0,30.06,SW,222,0.0,0.0,86,0.00,,,0.00,WUHU216WMR968SP,2013-05-01 02:12:00,
2013-04-30 22:17:00,62.4,59.0,30.06,SW,222,0.0,0.0,86,0.00,,,0.00,WUHU216WMR968SP,2013-05-01 02:17:00,
2013-04-30 22:22:00,62.2,59.0,30.09,SW,222,0.0,0.0,86,0.00,,,0.00,WUHU216WMR968SP,2013-05-01 02:22:00,
2013-04-30 22:27:00,62.4,59.0,30.09,SW,222,0.0,0.0,87,0.00,,,0.00,WUHU216WMR968SP,2013-05-01 02:27:00,
2013-04-30 22:32:00,62.2,59.0,30.09,SW,222,0.0,0.0,88,0.00,,,0.00,WUHU216WMR968SP,2013-05-01 02:32:00,
2013-04-30 22:37:00,62.2,59.0,30.09,SW,222,0.0,0.0,88,0.00,,,0.00,WUHU216WMR968SP,2013-05-01 02:37:00,
2013-04-30 22:42:00,62.2,59.0,30.09,SW,222,0.0,0.0,89,0.00,,,0.00,WUHU216WMR968SP,2013-05-01 02:42:00,
2013-04-30 22:47:00,61.9,59.0,30.09,SW,222,0.0,0.0,89,0.00,,,0.00,WUHU216WMR968SP,2013-05-01 02:47:00,
2013-04-30 22:52:00,61.9,59.0,30.09,SW,222,0.0,0.0,89,0.00,,,0.00,WUHU216WMR968SP,2013-05-01 02:52:00,
2013-04-30 22:57:00,61.7,59.0,30.09,SW,222,0.0,0.0,89,0.00,,,0.00,WUHU216WMR968SP,2013-05-01 02:57:00,
2013-04-30 23:02:00,61.5,57.2,30.09,SW,222,0.0,0.0,90,0.00,,,0.00,WUHU216WMR968SP,2013-05-01 03:02:00,
2013-04-30 23:07:00,61.3,57.2,30.09,SW,222,0.0,0.0,90,0.00,,,0.00,WUHU216WMR968SP,2013-05-01 03:07:00,
2013-04-30 23:12:00,61.3,57.2,30.09,SW,222,0.0,0.0,90,0.00,,,0.00,WUHU216WMR968SP,2013-05-01 03:12:00,
2013-04-30 23:17:00,61.3,59.0,30.09,SW,222,0.0,0.0,91,0.00,,,0.00,WUHU216WMR968SP,2013-05-01 03:17:00,
2013-04-30 23:22:00,61.3,59.0,30.09,SW,222,0.0,0.0,91,0.00,,,0.00,WUHU216WMR968SP,2013-05-01 03:22:00,
2013-04-30 23:27:00,61.3,59.0,30.09,SW,222,0.0,0.0,91,0.00,,,0.00,WUHU216WMR968SP,2013-05-01 03:27:00,
2013-04-30 23:32:00,61.3,59.0,30.09,SW,222,0.0,0.0,91,0.00,,,0.00,WUHU216WMR968SP,2013-05-01 03:32:00,
2013-04-30 23:37:00,61.3,59.0,30.09,SW,222,0.0,0.0,91,0.00,,,0.00,WUHU216WMR968SP,2013-05-01 03:37:00,
2013-04-30 23:42:00,61.3,59.0,30.09,SW,222,0.0,0.0,91,0.00,,,0.00,WUHU216WMR968SP,2013-05-01 03:42:00,
2013-04-30 23:47:00,61.3,59.0,30.09,SW,221,0.0,0.0,92,0.00,,,0.00,WUHU216WMR968SP,2013-05-01 03:47:00,
2013-04-30 23:52:00,61.3,59.0,30.09,SW,223,0.0,0.0,91,0.00,,,0.00,WUHU216WMR968SP,2013-05-01 03:52:00,
2013-04-30 23:57:00,61.3,59.0,30.09,SW,223,0.0,0.0,91,0.00,,,0.00,WUHU216WMR968SP,2013-05-01 03:57:00,